Location: Unspecified
(49.8670°N, 0.0000°E)
Time: 12:21:06
(UTC+00:00)

Courier 1B - Pass Details

Date: 23 June 2019
Orbit: 963 x 1209 km, 28.3° (Epoch: 21 July)

Event Time Altitude Azimuth Distance (km) Brightness Sun altitude
Rises 21:20:48 0° 239° (WSW) 3,956 10.8 -8.4°
Reaches altitude 10° 21:26:32 10° 204° (SSW) 3,059 9.8 -9.0°
Maximum altitude 21:28:05 11° 192° (SSW) 3,021 9.7 -9.1°
Drops below altitude 10° 21:29:39 10° 180° (S) 3,087 9.6 -9.3°
Enters shadow 21:31:18 - 169° (SSE) 3,261 9.7 -9.4°
